Location: Chrząstowo
(52.0654°N, 17.1290°E)
Time: 06:31:45
(UTC+01:00)

Envisat - Pass Details

Date: 13 December 2019
Orbit: 764 x 766 km, 98.1° (Epoch: 26 January)

Event Time Altitude Azimuth Distance (km) Brightness Sun altitude
Rises 05:26:29 0° 26° (NNE) 3,247 6.4 -20.9°
Reaches altitude 10° 05:29:32 10° 44° (NE) 2,315 5.9 -20.4°
Maximum altitude 05:33:01 18° 88° (E) 1,802 5.8 -19.9°
Drops below altitude 10° 05:36:28 10° 131° (SE) 2,302 6.4 -19.4°
Sets 05:39:29 0° 150° (SSE) 3,222 6.9 -18.9°
